Home   Weather   Huntington   Past weeks
Flag for USA

Past Weather in Huntington, Indiana, USA — Yesterday and Last 2 Weeks

Now
75 °F

Mostly cloudy.


Feels Like: 75 °F
Forecast: 83 / 73 °F
Wind: 9 mph from Southwest

Location: Fort Wayne International Airport

Current Time: Jul 16, 2019 at 6:41:28 am

Latest Report: Jul 16, 2019 at 5:54 am


Visibility: 10 mi

Pressure: 29.99 "Hg

Humidity: 82%

Dew Point: 69 °F

Location of HuntingtonLocation

Past Weather in Huntington — Graph

°F

Huntington Temperature Yesterday

Maximum temperature yesterday: 88 °F (at 1:54 pm)
Minimum temperature yesterday: 70 °F (at 3:54 am)
Average temperature yesterday: 80 °F

High & Low Weather Summary for the Past Weeks

 TemperatureHumidityPressure
High95 °F (Jul 2, 3:54 pm)94% (Jul 7, 1:54 am)30.14 "Hg (Jul 7, 1:54 am)
Low61 °F (Jul 12, 5:54 am)29% (Jul 12, 5:54 pm)29.82 "Hg (Jul 2, 5:54 pm)
Average79 °F67%29.98 "Hg
* Reported Jul 1 4:54 am — Jul 16 4:54 am, Huntington. Weather by CustomWeather, © 2019

Note: Actual official high and low records may vary slightly from our data, if they occured in-between our weather recording intervals... More about our weather records

Advertising

Huntington Weather History for the Previous 24 Hours

Scroll right to see more
 ConditionsComfort  
Time TempWeatherWind HumidityBarometerVisibility
4:54 am
Tue, Jul 16
75 °FOvercast.13 mph85%29.99 "Hg10 mi
3:54 am75 °FOvercast.6 mph88%30.00 "Hg10 mi
2:54 am76 °FOvercast.7 mph77%30.01 "Hg10 mi
1:54 am77 °FLight rain. Mostly cloudy.5 mph77%30.03 "Hg10 mi
12:54 am76 °FMostly cloudy.3 mph82%30.03 "Hg10 mi
11:54 pm
Mon, Jul 15
78 °FPartly cloudy.No wind71%30.03 "Hg10 mi
10:54 pm78 °FPassing clouds.5 mph71%30.03 "Hg10 mi
9:54 pm81 °FPassing clouds.9 mph62%30.02 "Hg10 mi
8:54 pm83 °FBroken clouds.7 mph63%30.01 "Hg10 mi
7:54 pm86 °FBroken clouds.6 mph57%30.01 "Hg10 mi
6:54 pm87 °FPartly sunny.6 mph51%30.00 "Hg10 mi
5:54 pm87 °FScattered clouds.12 mph50%30.01 "Hg10 mi
4:54 pm88 °FScattered clouds.12 mph52%30.03 "Hg10 mi
3:54 pm88 °FBroken clouds.8 mph55%30.05 "Hg10 mi
2:54 pm87 °FPartly sunny.10 mph61%30.06 "Hg10 mi
1:54 pm88 °FPartly sunny.10 mph59%30.07 "Hg10 mi
12:54 pm87 °FBroken clouds.N/A61%30.08 "Hg10 mi
11:54 am86 °FScattered clouds.5 mph61%30.09 "Hg10 mi
10:54 am85 °FScattered clouds.7 mph63%30.10 "Hg10 mi
9:54 am82 °FScattered clouds.7 mph67%30.11 "Hg10 mi
8:54 am78 °FScattered clouds.9 mph76%30.11 "Hg10 mi
7:54 am73 °FPassing clouds.6 mph88%30.10 "Hg10 mi
6:54 am70 °FPassing clouds.5 mph93%30.10 "Hg8 mi
Weather by CustomWeather, © 2019

See weather overview

LIVE PARTIAL LUNAR ECLIPSE – Watch the eclipse as it happens